KVPSKDTS

Guest
Details From KVPS - Eglin Afb
To KDTS - Destin Ft Walton Beach
Flight Number -
Tags Generated
Created
Modified
Stats Distance 5 nm / 8 km
Max Altitude 0 ft / 0 m
Waypoints 2
Social Downloads 1
Likes 0
Share VATSIM

Download

Looking for another format? Having issues loading an existing format? Contact us
Advertisement - Login to hide

Notes

Generated

Route

KVPS KDTS

ID Type Via Altitude Latitude Longitude Leg Dist Tot Dist Heading (true) Name
O KVPS APT - 0 ft / 0 m 30.47283˚ -86.51791˚ - 0 nm - -
O KDTS APT - 0 ft / 0 m 30.40549˚ -86.47634˚ 4 nm 4 nm 152° / 152° -

Altitude Profile

Advertisement - Login to hide

KVPS

Details ICAO KVPS (VPS)
Name EGLIN AFB
Region United States
Timezone America/Chicago (UTC-5.0)
Stats Elevation 87 ft / 27 m (AMSL)
Location 30.483467° -86.525097°
Runways 2
Magnetic Variation 3.310° W

METAR

KVPS 221157Z 08003KT 10SM FEW021 BKN070 BKN250 23/21 A3002 RMK AO2A SLP171 MDT CU SW-W T02340211 10250 20207 52019 $

Decode

TAF

TAF AMD KVPS 221130Z 2211/2315 15006KT 9999 SCT020 SCT050 QNH2997INS TEMPO 2211/2216 16010G15KT 8000 -TSRA BKN020CB BECMG 2217/2218 18010G18KT 9999 VCTS SCT025CB QNH2997INS BECMG 2221/2222 18008KT 9999 NSW SCT050 SCT200 QNH2997INS BECMG 2305/2306 16006KT 9999 SCT015 SCT025 QNH2998INS TX29/2219Z TN21/2212Z

Decode

Departure Runways

ID Width Length Bearing (true) Bearing (mag) Surface Threshold Offset Overrun Length
01 300 ft / 91 m 10,067 ft / 3,069 m 12.14° 15.45° Asphalt 0 ft / 0 m 750 ft / 229 m
12 300 ft / 91 m 11,999 ft / 3,657 m 119.79° 123.10° Asphalt 0 ft / 0 m 1,000 ft / 305 m
19 300 ft / 91 m 10,067 ft / 3,069 m 192.14° 195.45° Asphalt 0 ft / 0 m 500 ft / 152 m
30 300 ft / 91 m 11,999 ft / 3,657 m 299.81° 303.12° Asphalt 0 ft / 0 m 1,000 ft / 305 m

KDTS

Details ICAO KDTS (DTS)
Name Destin Ft Walton Beach
Region United States
Timezone America/Chicago (UTC-5.0)
Stats Elevation 23 ft / 7 m (AMSL)
Location 30.400060° -86.471475°
Runways 1
Magnetic Variation 3.336° W

METAR

KDTS 221153Z 00000KT 10SM BKN070 24/23 A3002 RMK AO2 SLP166 T02440228 10256 20228 51018 $

Decode

TAF

Not found

Destination Runways

ID Width Length Bearing (true) Bearing (mag) Surface Threshold Offset Overrun Length
14 98 ft / 30 m 5,007 ft / 1,526 m 142.27° 145.61° Asphalt 0 ft / 0 m 200 ft / 61 m
32 98 ft / 30 m 5,007 ft / 1,526 m 322.28° 325.62° Asphalt 0 ft / 0 m 200 ft / 61 m

Popular Alternatives